Abingdon, VA

5:31 PM EST on December 07, 2019 (GMT -0500)
Virginia Highlands

Weather History for KVJI - June, 2019

Change the Weather History Date:

Saturday, June 8, 2019

  Actual Average (KTRI) Record (KTRI)
Temperature  
Mean Temperature 70 °F -  
Max Temperature 76 °F 81 °F 94 °F (1952)
Min Temperature 63 °F 57 °F 42 °F (1977)
Cooling Degree Days 4    
Growing Degree Days 20 (Base 50)    
Moisture  
Dew Point 65 °F    
Average Humidity 91    
Maximum Humidity 100    
Minimum Humidity 74    
Precipitation  
Precipitation 1.12 in - - ()
Sea Level Pressure  
Sea Level Pressure 29.94 in    
Wind  
Wind Speed 11 mph (East)    
Max Wind Speed 20 mph    
Max Gust Speed 26 mph    
Visibility 9 miles    
Events Rain    
Averages and records for this station are not official NWS values.
T = Trace of Precipitation, MM = Missing Value Source: NWS Daily Summary

Daily Weather History Graph

Daily Weather History Graph

Search for Another Location

Airport or City:

Astronomy

Jun. 08, 2019 Rise Set
Actual Time 6:09 AM EDT 8:45 PM EDT
Civil Twilight 5:38 AM EDT 9:15 PM EDT
Nautical Twilight 5:01 AM EDT 9:53 PM EDT
Astronomical Twilight 4:18 AM EDT 10:35 PM EDT
Moon 11:31 AM EDT (6/8) 12:49 AM EDT (6/8)
Length of Visible Light 15h 36m
Length of Day
14h 36m
Waxing Crescent, 32% of the Moon is Illuminated
Jun 8
Waxing Crescent
Jun 10
First Quarter
Jun 17
Full
Jun 25
Last Quarter
Jul 2
New

Hourly Weather History & Observations

Time (EDT) Temp. Dew Point Humidity Pressure Visibility Wind Dir Wind Speed Gust Speed Precip Events Conditions
12:15 AM 66.6 °F 64.6 °F 93% 29.90 in 10.0 mi East 11.5 mph 17.3 mph N/A   Overcast
12:35 AM 66.6 °F 64.6 °F 93% 29.90 in 10.0 mi East 11.5 mph - N/A   Overcast
12:55 AM 66.6 °F 64.4 °F 93% 29.90 in 10.0 mi East 9.2 mph - N/A   Overcast
1:15 AM 65.8 °F 64.6 °F 96% 29.90 in 10.0 mi ESE 9.2 mph - 0.01 in Rain Light Rain
1:35 AM 65.3 °F 64.8 °F 98% 29.90 in 4.0 mi ENE 5.8 mph - 0.10 in Rain Rain
1:55 AM 65.3 °F 64.9 °F 99% 29.89 in 10.0 mi ENE 5.8 mph - 0.12 in Rain Light Rain
2:15 AM 65.3 °F 64.6 °F 98% 29.89 in 10.0 mi East 6.9 mph - 0.01 in Rain Light Rain
2:35 AM 65.3 °F 64.6 °F 98% 29.89 in 10.0 mi East 4.6 mph - 0.01 in   Drizzle
2:55 AM 65.3 °F 64.9 °F 99% 29.90 in 10.0 mi SE 3.5 mph - 0.02 in   Drizzle
3:15 AM 65.3 °F 65.1 °F 99% 29.90 in 10.0 mi Calm Calm - 0.01 in   Drizzle
3:35 AM 65.3 °F 65.3 °F 100% 29.89 in 10.0 mi East 6.9 mph - 0.03 in Rain Light Rain
3:55 AM 65.1 °F 65.1 °F 100% 29.89 in 10.0 mi East 8.1 mph - 0.04 in Rain Rain
4:15 AM 64.6 °F 64.6 °F 100% 29.89 in 10.0 mi East 12.7 mph - N/A Rain Rain
4:35 AM 64.4 °F 64.4 °F 100% 29.89 in 10.0 mi East 11.5 mph - 0.02 in Rain Light Rain
4:55 AM 64.0 °F 64.0 °F 100% 29.89 in 10.0 mi East 6.9 mph - 0.02 in Rain Light Rain
5:15 AM 63.9 °F 63.9 °F 100% 29.90 in 10.0 mi East 11.5 mph - 0.02 in Rain Light Rain
5:35 AM 63.9 °F 63.9 °F 100% 29.91 in 10.0 mi East 10.4 mph - 0.02 in Rain Rain
5:55 AM 63.9 °F 63.9 °F 100% 29.91 in 10.0 mi East 8.1 mph - 0.03 in Rain Rain
6:15 AM 63.9 °F 63.9 °F 100% 29.92 in 10.0 mi East 9.2 mph - 0.01 in   Drizzle
6:35 AM 63.9 °F 63.9 °F 100% 29.92 in 10.0 mi East 9.2 mph - 0.01 in   Drizzle
6:55 AM 64.0 °F 64.0 °F 100% 29.92 in 10.0 mi East 8.1 mph - 0.02 in Rain Rain
7:15 AM 64.4 °F 64.4 °F 100% 29.92 in 10.0 mi East 9.2 mph - N/A   Light Drizzle
7:35 AM 64.4 °F 64.4 °F 100% 29.93 in 10.0 mi East 6.9 mph - N/A   Overcast
7:55 AM 64.8 °F 64.8 °F 100% 29.93 in 10.0 mi East 8.1 mph - N/A   Mostly Cloudy
8:15 AM 65.3 °F 65.3 °F 100% 29.93 in 10.0 mi East 9.2 mph - N/A   Mostly Cloudy
8:35 AM 66.2 °F 65.8 °F 99% 29.94 in 10.0 mi East 9.2 mph - N/A   Scattered Clouds
8:55 AM 67.3 °F 66.4 °F 97% 29.94 in 10.0 mi East 11.5 mph - N/A   Mostly Cloudy
9:15 AM 68.0 °F 66.0 °F 93% 29.95 in 10.0 mi East 13.8 mph - N/A   Overcast
9:35 AM 68.2 °F 66.2 °F 93% 29.95 in 10.0 mi East 11.5 mph - N/A   Overcast
9:55 AM 69.6 °F 66.4 °F 89% 29.95 in 10.0 mi East 13.8 mph - N/A   Overcast
10:15 AM 69.8 °F 66.0 °F 88% 29.95 in 10.0 mi East 12.7 mph - N/A   Mostly Cloudy
10:35 AM 70.3 °F 66.7 °F 88% 29.95 in 10.0 mi East 11.5 mph - N/A   Scattered Clouds
10:55 AM 72.5 °F 67.3 °F 84% 29.95 in 10.0 mi East 12.7 mph 18.4 mph N/A   Scattered Clouds
11:20 AM 73.0 °F 66.6 °F 80% 29.95 in 10.0 mi ESE 15.0 mph 18.4 mph N/A   Scattered Clouds
11:35 AM 72.9 °F 66.9 °F 82% 29.96 in 10.0 mi East 12.7 mph - N/A   Scattered Clouds
11:55 AM 74.5 °F 68.2 °F 81% 29.96 in 10.0 mi East 13.8 mph - N/A   Scattered Clouds
12:15 PM 74.1 °F 66.7 °F 78% 29.96 in 10.0 mi ESE 13.8 mph - N/A   Mostly Cloudy
12:35 PM 74.7 °F 67.6 °F 79% 29.96 in 10.0 mi East 15.0 mph - N/A   Mostly Cloudy
12:55 PM 74.7 °F 68.0 °F 80% 29.96 in 10.0 mi East 12.7 mph 20.7 mph N/A   Scattered Clouds
1:15 PM 74.7 °F 67.8 °F 79% 29.95 in 10.0 mi East 13.8 mph - N/A   Scattered Clouds
1:35 PM 75.9 °F 68.5 °F 78% 29.95 in 10.0 mi East 13.8 mph - N/A   Scattered Clouds
1:55 PM 74.7 °F 67.6 °F 79% 29.95 in 10.0 mi East 15.0 mph 19.6 mph N/A   Mostly Cloudy
2:15 PM 73.2 °F 66.9 °F 81% 29.95 in 10.0 mi East 16.1 mph 19.6 mph N/A   Overcast
2:35 PM 74.5 °F 67.1 °F 78% 29.95 in 10.0 mi East 17.3 mph - N/A   Mostly Cloudy
2:55 PM 75.4 °F 68.0 °F 78% 29.94 in 10.0 mi ESE 16.1 mph 21.9 mph N/A   Scattered Clouds
3:15 PM 75.7 °F 68.0 °F 77% 29.94 in 10.0 mi ESE 15.0 mph - N/A   Scattered Clouds
3:35 PM 74.8 °F 67.5 °F 78% 29.94 in 10.0 mi East 12.7 mph 18.4 mph N/A   Overcast
3:55 PM 75.4 °F 68.0 °F 78% 29.93 in 10.0 mi East 19.6 mph - N/A   Mostly Cloudy
4:15 PM 76.3 °F 67.6 °F 74% 29.93 in 10.0 mi East 18.4 mph 26.5 mph N/A   Mostly Cloudy
4:35 PM 75.6 °F 67.5 °F 76% 29.94 in 10.0 mi ESE 19.6 mph 23.0 mph N/A   Mostly Cloudy
4:55 PM 73.9 °F 66.9 °F 79% 29.94 in 10.0 mi ESE 19.6 mph 24.2 mph N/A   Scattered Clouds
5:15 PM 72.9 °F 66.4 °F 80% 29.94 in 10.0 mi ESE 18.4 mph 23.0 mph N/A   Mostly Cloudy
5:35 PM 71.6 °F 65.5 °F 81% 29.95 in 10.0 mi East 19.6 mph 26.5 mph N/A   Mostly Cloudy
5:55 PM 70.3 °F 65.3 °F 84% 29.95 in 10.0 mi East 17.3 mph 21.9 mph N/A   Mostly Cloudy
6:15 PM 70.2 °F 65.3 °F 85% 29.95 in 10.0 mi ESE 17.3 mph 23.0 mph N/A   Overcast
6:35 PM 69.1 °F 64.6 °F 86% 29.95 in 10.0 mi East 19.6 mph 24.2 mph N/A   Mostly Cloudy
6:55 PM 68.0 °F 63.9 °F 87% 29.96 in 10.0 mi East 17.3 mph - N/A   Scattered Clouds
7:15 PM 67.1 °F 63.9 °F 89% 29.97 in 10.0 mi East 16.1 mph 19.6 mph N/A   Mostly Cloudy
7:35 PM 66.7 °F 63.7 °F 90% 29.98 in 10.0 mi East 12.7 mph - N/A   Overcast
7:55 PM 66.2 °F 64.0 °F 93% 29.99 in 10.0 mi East 15.0 mph 18.4 mph N/A Rain Light Rain
8:15 PM 65.5 °F 64.4 °F 96% 30.00 in 5.0 mi ESE 12.7 mph - 0.05 in Rain Rain
8:35 PM 64.9 °F 64.2 °F 98% 29.99 in 4.0 mi East 12.7 mph - 0.12 in Rain Rain
8:55 PM 64.4 °F 64.4 °F 100% 30.00 in 5.0 mi East 12.7 mph - 0.22 in Rain Heavy Rain
9:15 PM 64.4 °F 64.4 °F 100% 30.00 in 7.0 mi East 15.0 mph - 0.10 in Rain Heavy Rain
9:35 PM 64.4 °F 64.4 °F 100% 29.99 in 4.0 mi East 15.0 mph - 0.23 in Rain Heavy Rain
9:55 PM 64.0 °F 64.0 °F 100% 30.00 in 4.0 mi East 15.0 mph 18.4 mph 0.45 in Rain Rain
10:15 PM 64.0 °F 64.0 °F 100% 30.01 in 5.0 mi East 16.1 mph 20.7 mph 0.09 in Rain Rain
10:35 PM 63.9 °F 63.9 °F 100% 30.01 in 7.0 mi East 13.8 mph 18.4 mph 0.16 in Rain Rain
10:55 PM 63.9 °F 63.9 °F 100% 30.01 in 10.0 mi East 13.8 mph - 0.17 in Rain Light Rain
11:15 PM 63.9 °F 63.9 °F 100% 30.01 in 10.0 mi East 11.5 mph - N/A Rain Light Rain
11:35 PM 63.9 °F 63.9 °F 100% 30.01 in 10.0 mi East 13.8 mph 17.3 mph 0.02 in Rain Light Rain
11:55 PM 63.9 °F 63.9 °F 100% 30.00 in 10.0 mi East 13.8 mph - 0.03 in Rain Light Rain